Home   Weather   Itabuna   Past weeks

Flag for Brazil Past Weather in Itabuna, Bahia, Brazil — Yesterday and Last 2 Weeks

Now
86 °F

Scattered clouds.


Feels Like: 93 °F
Forecast: 71 / 84 °F
Wind: 10 mph from Southeast

Location: Salvador Aeroporto

Current Time: Apr 25, 2017 at 1:49:20 pm

Latest Report: Apr 25, 2017 at 1:00 pm


Visibility: N/A

Pressure: 29.89 "Hg

Humidity: 66%

Dew Point: 73 °F

Location of ItabunaLocation

Past Weather in Itabuna — Graph

°F

Itabuna Temperature Yesterday

Maximum temperature yesterday: 86 °F (at 10:00 am)
Minimum temperature yesterday: 81 °F (at 12:00 am)
Average temperature yesterday: 83 °F

High & Low Weather Summary for the Past Weeks

 TemperatureHumidityPressure
High88 °F (Apr 10, 1:00 pm)100% (Apr 14, 7:00 pm)30.04 "Hg (Apr 14, 7:00 pm)
Low39 °F (Apr 14, 7:00 pm)55% (Apr 20, 12:00 pm)29.86 "Hg (Apr 10, 2:00 pm)
Average81 °F75%29.93 "Hg
* Reported Apr 10 12:00 pm — Apr 25 12:00 pm, Itabuna, Weather by CustomWeather, © 2017

Note: Actual official high and low records may vary slightly from our data, if they occured in-between our weather recording intervals... More about our weather records

Advertising

Itabuna Weather History for the Previous 24 Hours

Scroll right to see more
 ConditionsComfort  
Time TempWeatherWind HumidityBarometerVisibility
12:00 pm
Tue, Apr 25
86 °FScattered clouds.12 mph62%29.92 "HgN/A
11:00 am84 °FScattered clouds.10 mph66%29.95 "HgN/A
10:00 am86 °FScattered clouds.10 mph62%29.95 "HgN/A
9:00 am84 °FScattered clouds.10 mph66%29.95 "HgN/A
8:00 am82 °FScattered clouds.7 mph74%29.95 "HgN/A
7:00 am81 °FScattered clouds.6 mph74%29.92 "HgN/A
6:00 am81 °FScattered clouds.6 mph74%29.92 "HgN/A
5:00 am81 °FPassing clouds.7 mph74%29.89 "HgN/A
4:00 am81 °FPassing clouds.6 mph74%29.92 "HgN/A
2:00 am81 °FPassing clouds.9 mph79%29.92 "HgN/A
1:00 am81 °FPassing clouds.7 mph79%29.95 "HgN/A
12:00 am81 °FPassing clouds.6 mph74%29.98 "HgN/A
11:00 pm
Mon, Apr 24
81 °FPassing clouds.7 mph79%29.98 "HgN/A
10:00 pm81 °FPassing clouds.8 mph79%29.98 "HgN/A
9:00 pm81 °FPassing clouds.7 mph79%29.98 "HgN/A
8:00 pm82 °FPassing clouds.7 mph70%29.98 "HgN/A
7:00 pm82 °FPassing clouds.8 mph70%29.95 "HgN/A
6:00 pm82 °FPassing clouds.8 mph70%29.95 "HgN/A
4:00 pm84 °FScattered clouds.10 mph70%29.92 "HgN/A
3:00 pm86 °FScattered clouds.9 mph62%29.92 "HgN/A
2:00 pm86 °FScattered clouds.10 mph62%29.95 "HgN/A
1:00 pm86 °FScattered clouds.10 mph66%29.95 "HgN/A
Weather by CustomWeather, © 2017

See weather overviewHow to use our weather pages